Weather History for Lexington, NE

Change the Weather History Date:

Monday, December 23, 2013

  Actual Average Record
Temperature  
Mean Temperature 12 °F -  
Max Temperature 16 °F 37 °F 59 °F (2005)
Min Temperature 7 °F 13 °F -7 °F (1998)
Degree Days  
Heating Degree Days 54    
Moisture  
Dew Point 6 °F    
Average Humidity 76    
Maximum Humidity 86    
Minimum Humidity 61    
Precipitation  
Precipitation 0.00 in - - ()
Sea Level Pressure  
Sea Level Pressure 30.40 in    
Wind  
Wind Speed 8 mph (ESE)    
Max Wind Speed 13 mph    
Max Gust Speed -    
Visibility 10 miles    
Events Snow    
Averages and records for this station are not official NWS values.
T = Trace of Precipitation, MM = Missing Value Source: NWS Daily Summary

Daily Weather History Graph

Daily Weather History Graph

Search for Another Location

Airport:

Trip Planner

Search our weather history database for the weather conditions in past years. The results will help you decide how hot, cold, wet, or windy it might be!

Date:

Astronomy

Dec. 23, 2013 Rise Set
Actual Time 8:00 AM CST 5:15 PM CST
Civil Twilight 7:29 AM CST 5:46 PM CST
Nautical Twilight 6:55 AM CST 6:21 PM CST
Astronomical Twilight 6:22 AM CST 6:54 PM CST
Moon 11:29 PM CST (12/23) 11:25 AM CST (12/23)
Length of Visible Light 10h 16m
Length of Day
9h 14m
Waning Gibbous, 68% of the Moon is Illuminated
Dec 23
Waning Gibbous
Dec 25
Last Quarter
Jan 1
New
Jan 7
First Quarter
Jan 15
Full

Hourly Weather History & Observations

Time (CST) Temp. Windchill Dew Point Humidity Pressure Visibility Wind Dir Wind Speed Gust Speed Precip Events Conditions
12:15 AM 15.4 °F 1.6 °F 12.0 °F 86% 30.34 in 2.5 mi North 12.7 mph - N/A Snow Light Snow
12:35 AM 14.9 °F 2.3 °F 11.3 °F 86% 30.35 in 4.0 mi North 10.4 mph - N/A Snow Light Snow
12:55 AM 14.5 °F 3.6 °F 10.6 °F 84% 30.35 in 4.0 mi NNW 8.1 mph - N/A Snow Light Snow
1:15 AM 14.5 °F 2.7 °F 10.0 °F 82% 30.35 in 10.0 mi North 9.2 mph - N/A Snow Light Snow
1:35 AM 13.6 °F 1.6 °F 8.4 °F 80% 30.36 in 10.0 mi North 9.2 mph - N/A Snow Light Snow
1:55 AM 12.7 °F 2.4 °F 8.2 °F 82% 30.36 in 5.0 mi North 6.9 mph - N/A Snow Light Snow
2:15 AM 12.7 °F 1.4 °F 8.6 °F 84% 30.37 in 5.0 mi North 8.1 mph - N/A Snow Light Snow
2:35 AM 12.6 °F 0.2 °F 8.6 °F 84% 30.38 in 5.0 mi North 9.2 mph - N/A Snow Light Snow
2:55 AM 12.2 °F -0.2 °F 7.7 °F 82% 30.39 in 7.0 mi North 9.2 mph - N/A Snow Light Snow
3:15 AM 11.7 °F -0.9 °F 6.8 °F 81% 30.39 in 10.0 mi North 9.2 mph - N/A   Overcast
3:35 AM 11.3 °F -3.6 °F 5.2 °F 76% 30.40 in 10.0 mi North 12.7 mph - N/A   Overcast
3:55 AM 11.1 °F -3.9 °F 4.6 °F 75% 30.40 in 10.0 mi North 12.7 mph - N/A   Overcast
4:15 AM 10.9 °F -3.4 °F 5.0 °F 77% 30.40 in 10.0 mi North 11.5 mph - N/A   Overcast
4:35 AM 10.8 °F -2.0 °F 5.0 °F 78% 30.41 in 10.0 mi North 9.2 mph - N/A   Overcast
4:55 AM 10.4 °F -2.4 °F 4.5 °F 77% 30.41 in 10.0 mi North 9.2 mph - N/A   Overcast
5:15 AM 9.3 °F -0.5 °F 3.9 °F 79% 30.41 in 10.0 mi North 5.8 mph - N/A   Overcast
5:35 AM 7.7 °F -2.4 °F 3.0 °F 81% 30.41 in 10.0 mi NNW 5.8 mph - N/A   Overcast
5:55 AM 8.6 °F 2.0 °F 4.1 °F 82% 30.42 in 10.0 mi NNW 3.5 mph - N/A   Overcast
6:15 AM 9.3 °F - 4.6 °F 81% 30.42 in 10.0 mi Calm Calm - N/A   Overcast
6:35 AM 10.0 °F - 5.0 °F 80% 30.43 in 10.0 mi Calm Calm - N/A   Overcast
6:55 AM 10.2 °F 3.8 °F 4.8 °F 79% 30.44 in 10.0 mi NNW 3.5 mph - N/A   Overcast
7:15 AM 9.7 °F 1.4 °F 5.0 °F 81% 30.44 in 10.0 mi NNW 4.6 mph - N/A   Overcast
7:35 AM 9.3 °F 2.8 °F 4.6 °F 81% 30.45 in 10.0 mi NNW 3.5 mph - N/A   Overcast
7:55 AM 10.0 °F 0.4 °F 4.5 °F 78% 30.45 in 10.0 mi North 5.8 mph - N/A   Overcast
8:15 AM 9.5 °F 3.0 °F 3.7 °F 77% 30.46 in 10.0 mi North 3.5 mph - N/A   Overcast
8:35 AM 10.0 °F 1.8 °F 4.1 °F 77% 30.47 in 10.0 mi North 4.6 mph - N/A   Overcast
8:55 AM 10.2 °F 2.0 °F 4.1 °F 76% 30.48 in 10.0 mi NNW 4.6 mph - N/A   Overcast
9:15 AM 10.4 °F 0.8 °F 4.3 °F 76% 30.49 in 10.0 mi NW 5.8 mph - N/A   Overcast
9:35 AM 10.6 °F 2.5 °F 4.1 °F 75% 30.49 in 10.0 mi NNW 4.6 mph - N/A   Overcast
9:55 AM 11.1 °F 3.1 °F 3.9 °F 73% 30.49 in 10.0 mi NNW 4.6 mph - N/A   Overcast
10:15 AM 11.3 °F 5.1 °F 3.4 °F 70% 30.50 in 10.0 mi NNW 3.5 mph - N/A   Overcast
10:35 AM 11.3 °F - 3.4 °F 70% 30.50 in 10.0 mi Calm Calm - N/A   Overcast
10:55 AM 11.3 °F - 3.2 °F 70% 30.50 in 10.0 mi Calm Calm - N/A   Overcast
11:15 AM 12.0 °F - 3.4 °F 68% 30.50 in 10.0 mi Calm Calm - N/A   Overcast
11:35 AM 13.3 °F - 4.3 °F 67% 30.48 in 10.0 mi Calm Calm - N/A   Overcast
11:55 AM 13.3 °F - 3.0 °F 64% 30.48 in 10.0 mi Calm Calm - N/A   Overcast
12:15 PM 13.8 °F - 3.0 °F 62% 30.48 in 10.0 mi Calm Calm - N/A   Overcast
12:35 PM 14.4 °F - 4.5 °F 65% 30.46 in 10.0 mi Calm Calm - N/A   Overcast
12:55 PM 14.9 °F 9.2 °F 4.5 °F 63% 30.46 in 10.0 mi South 3.5 mph - N/A   Overcast
1:15 PM 15.1 °F - 3.7 °F 61% 30.44 in 10.0 mi Calm Calm - N/A   Overcast
1:35 PM 15.4 °F 4.6 °F 5.9 °F 66% 30.44 in 10.0 mi SW 8.1 mph - N/A Snow Light Snow
1:55 PM 16.0 °F 7.4 °F 5.9 °F 65% 30.43 in 10.0 mi SW 5.8 mph - N/A   Overcast
2:15 PM 16.9 °F 5.5 °F 7.5 °F 67% 30.41 in 10.0 mi SSW 9.2 mph - N/A Snow Light Snow
2:35 PM 16.7 °F 6.2 °F 7.2 °F 66% 30.41 in 10.0 mi SSW 8.1 mph - N/A   Overcast
2:55 PM 16.7 °F 6.2 °F 7.5 °F 67% 30.41 in 10.0 mi SSW 8.1 mph - N/A   Overcast
3:20 PM 16.7 °F 6.2 °F 7.7 °F 68% 30.40 in 10.0 mi South 8.1 mph - N/A   Overcast
3:35 PM 16.7 °F 5.3 °F 7.7 °F 68% 30.39 in 10.0 mi South 9.2 mph - N/A   Overcast
3:55 PM 16.5 °F 6.0 °F 7.5 °F 68% 30.39 in 10.0 mi South 8.1 mph - N/A   Overcast
4:15 PM 16.3 °F 4.9 °F 7.5 °F 68% 30.40 in 10.0 mi South 9.2 mph - N/A   Overcast
4:35 PM 16.5 °F 6.0 °F 8.8 °F 72% 30.40 in 10.0 mi South 8.1 mph - N/A   Overcast
4:55 PM 16.5 °F 6.0 °F 9.3 °F 73% 30.39 in 10.0 mi South 8.1 mph - N/A   Overcast
5:15 PM 15.8 °F 5.1 °F 8.1 °F 72% 30.38 in 10.0 mi South 8.1 mph - N/A   Overcast
5:35 PM 15.6 °F 4.0 °F 8.2 °F 73% 30.37 in 10.0 mi South 9.2 mph - N/A   Overcast
5:55 PM 15.6 °F 3.2 °F 8.4 °F 73% 30.37 in 10.0 mi South 10.4 mph - N/A   Overcast
6:15 PM 14.5 °F 3.6 °F 7.9 °F 75% 30.37 in 10.0 mi South 8.1 mph - N/A   Mostly Cloudy
6:35 PM 12.0 °F -0.4 °F 6.4 °F 78% 30.37 in 10.0 mi SSE 9.2 mph - N/A   Scattered Clouds
6:55 PM 10.9 °F 0.2 °F 5.7 °F 79% 30.36 in 10.0 mi SE 6.9 mph - N/A   Clear
7:15 PM 11.3 °F -0.4 °F 5.4 °F 77% 30.36 in 10.0 mi SE 8.1 mph - N/A   Clear
7:35 PM 10.8 °F -2.0 °F 4.6 °F 76% 30.35 in 10.0 mi SE 9.2 mph - N/A   Clear
7:55 PM 10.2 °F -1.7 °F 4.5 °F 78% 30.36 in 10.0 mi SE 8.1 mph - N/A   Clear
8:15 PM 9.7 °F -3.3 °F 4.1 °F 78% 30.35 in 10.0 mi SE 9.2 mph - N/A   Clear
8:35 PM 9.1 °F -4.0 °F 4.1 °F 80% 30.34 in 10.0 mi SE 9.2 mph - N/A   Clear
8:55 PM 9.0 °F -5.1 °F 4.1 °F 81% 30.34 in 10.0 mi SE 10.4 mph - N/A   Clear
9:15 PM 9.0 °F -4.2 °F 4.1 °F 81% 30.34 in 10.0 mi SE 9.2 mph - N/A   Clear
9:35 PM 9.0 °F -4.2 °F 4.1 °F 81% 30.33 in 10.0 mi SE 9.2 mph - N/A   Clear
9:55 PM 8.6 °F -3.7 °F 4.1 °F 82% 30.32 in 10.0 mi SE 8.1 mph - N/A   Clear
10:15 PM 9.0 °F -3.2 °F 4.5 °F 82% 30.31 in 10.0 mi SE 8.1 mph - N/A   Clear
10:35 PM 9.3 °F -3.8 °F 5.0 °F 83% 30.29 in 10.0 mi SE 9.2 mph - N/A   Clear
10:55 PM 10.0 °F -3.7 °F 5.5 °F 82% 30.29 in 10.0 mi SSE 10.4 mph - N/A   Clear
11:15 PM 11.3 °F -3.6 °F 6.8 °F 82% 30.28 in 10.0 mi SSE 12.7 mph - N/A   Clear
11:35 PM 11.8 °F -3.0 °F 7.3 °F 82% 30.27 in 10.0 mi SSE 12.7 mph - N/A   Clear
11:55 PM 11.7 °F -0.9 °F 7.5 °F 83% 30.27 in 10.0 mi SSE 9.2 mph - N/A   Clear